Simultaneous Nadir Overpasses (SNOs) Predictions

Prediction of SNOs between GOES-16 and NOAA-19 Satellite Orbit:

Table of predicted SNOs for the next 14.0 days since TLE Epoch: 4/11/2025
Index Date Time (GOES-16) GOES-16 Lat,Lon NOAA-19 Lat,Lon Distance(km) Time Diff (sec)
1 04/12/2025 14:45:15 0.07, -75.53 -0.03, -75.06 53.12 80
2 04/13/2025 14:32:39 0.07, -75.54 -0.71, -71.99 403.29 80
3 04/15/2025 03:04:02 -0.07, -75.53 -0.99, -79.54 457.63 80
4 04/16/2025 02:51:26 -0.07, -75.54 -0.27, -76.49 107.61 80
5 04/17/2025 02:36:10 -0.07, -75.55 0.40, -73.42 242.49 80
6 04/19/2025 14:54:44 0.06, -75.60 0.60, -77.85 258.14 80
7 04/20/2025 14:44:48 0.05, -75.61 -0.15, -74.81 92.58 80
8 04/21/2025 14:32:12 0.05, -75.63 -0.85, -71.74 443.42 80
9 04/23/2025 03:03:36 -0.05, -75.64 -0.86, -79.29 416.62 80
10 04/24/2025 02:51:00 -0.05, -75.66 -0.17, -76.23 65.46 80
11 04/25/2025 02:35:43 -0.05, -75.68 0.53, -73.17 285.89 80
